Regional Weather Roundup
Issued by NWS

Home | Current Version | Previous Version | Graphics & Text | Print | Product List | Glossary On
Versions: 1 2 3 4 5 6 7 8 9 10 11 12 13 14 15 16 17 18 19 20 21 22 23 24 25 26 27 28 29 30 31 32 33 34 35 36 37 38 39 40 41 42 43 44 45 46 47 48 49 50
000
ASUS45 KBOI 261810
RWRID

IDAHO REGIONAL WEATHER ROUNDUP
NATIONAL WEATHER SERVICE BOISE ID
1200 PM MDT FRI MAY 26 2017

NOTE: "FAIR" INDICATES FEW OR NO CLOUDS BELOW 12000 FEET
WITH NO SIGNIFICANT WEATHER AND/OR OBSTRUCTIONS TO VISIBILITY

IDZ012-014-261900-
SOUTHWEST IDAHO


CITY           SKY/WX    TMP DP  RH WIND       PRES   REMARKS
BOISE          MOSUNNY   62  42  47 NW12G21   29.90R
CALDWELL       PTSUNNY   62  43  49 W12       29.91R
MOUNTAIN HOME  MOSUNNY   60  42  50 W13G21    29.90S
$$

IDZ016-017-261900-
SOUTHCENTRAL IDAHO


CITY           SKY/WX    TMP DP  RH WIND       PRES   REMARKS
BURLEY         CLOUDY    50  43  77 W7        29.91R
JEROME         CLOUDY    51  45  79 W10       29.92R
TWIN FALLS     CLOUDY    53  44  71 W15       29.92R
$$

IDZ019>023-261900-
SOUTHEAST IDAHO


CITY           SKY/WX    TMP DP  RH WIND       PRES   REMARKS
IDAHO FALLS    LGT RAIN  44  43  96 N13       29.89R
POCATELLO      CLOUDY    46  43  89 W9        29.92R
REXBURG        LGT RAIN  43  40  89 NE9       29.89R
$$

IDZ006-010-011-018-031-032-261900-
CENTRAL IDAHO MOUNTAINS


CITY           SKY/WX    TMP DP  RH WIND       PRES   REMARKS
MCCALL         SUNNY     55  33  43 N9        29.92R
HAILEY         DRIZZLE   41  39  93 CALM      29.94R
STANLEY          N/A     46  37  71 VRB7      29.93R
SALMON         CLOUDY    55  36  47 N5        29.90R
CHALLIS        CLOUDY    53  34  48 NE7       29.91R
$$

IDZ002-004-006-007-026-261900-
NORTHERN IDAHO


CITY           SKY/WX    TMP DP  RH WIND       PRES   REMARKS
LEWISTON       SUNNY     66  46  48 W5        29.94S
LOWELL           N/A     66  43  43 S8        29.89F
COEUR D`ALENE  SUNNY     66  40  38 CALM      29.94S
MULLAN PASS    PTSUNNY   49  32  52 CALM      29.99R
$$



USA.gov is the U.S. government's official web portal to all federal, state and local government web resources and services.